map of BFP home
Great Circle Mapper logo
BFP - Airport
Location
City:  Beaver Falls, Pennsylvania, United States
Name:Beaver County Airport
ICAO / IATA:KBVI / BFP
FAA:BVI

Details
Type:Airport (Airfield)
Use:Public/Civil
Latitude:4046'21"N (40.772472)
Longitude:8023'29"W (-80.391443)
Datum:WGS 1984
Elevation:1253 ft (382 m)
Variation:9.05W (WMM2015 magnetic declination)
-0.02 annual change
Runways:1
Longest:4501 × 100 ft (1372 × 30.5 m), paved

Time
Time Zone:UTC-5 (DST-4)
Local Time:

Weather
METAR:KBVI 300147Z 29012G26KT 5SM -RA BKN005 BKN012 OVC017 01/00 A2986
TAF:KBVI 300316Z 3003/3024 28012G22KT 2SM -SHSN OVC005
FM300900 30012G24KT 3SM -SHSN OVC010
FM301500 31012G24KT P6SM OVC015
AMD NOT SKED

Related Locations
Nearby:
Farthest:MGV: 11467 mi / 18455 km
Margaret River, WA, AU

Find:

   beyond  
but within

Other Information
Maps:
NOTAMs:
Links:
Sources:

  
flag of United States
flag of Pennsylvania
  

Airport Diagram

Airport diagram for BFP

Airport diagram PDF

Sectional Chart

Flight Planning
at skyvector.com

Satellite Image

Google Maps Satellite View

 

Copyright © 2004-2015 Karl L. Swartz. All rights reserved.
The Great Circle Mapper name and logo are trademarks of the Great Circle Mapper.
All other trademarks mentioned herein belong to their respective owners.
Please see credits for attibutions and further copyright information.

  Follow gcmap on Facebook Follow gcmap on Twitter

hCard Microformat

Geo Microformat